GW7203 Weather Reports


time (UTC)temp
C
wind
direction
speed
KPH
gust
KPH
rain 1hr
cm
rain 24hr
cm
rain mn
cm
humidity
%
barometer
mb
20260505041718 9 16 0.0 3.2 0.00 0.00 0.00 71 1006.6
20260505041518 9 353 0.0 1.6 0.00 0.00 0.00 71 1006.4
20260505041318 9 353 0.0 0.0 0.00 0.00 0.00 70 1006.4
20260505041118 9 353 0.0 1.6 0.00 0.00 0.00 70 1006.3
20260505040918 9 353 1.6 1.6 0.00 0.00 0.00 70 1006.5
20260505040718 9 10 0.0 0.0 0.00 0.00 0.00 70 1006.5
20260505040518 9 10 0.0 0.0 0.00 0.00 0.00 69 1006.4
20260505040317 9 10 0.0 1.6 0.00 0.00 0.00 69 1006.5
20260505040117 9 10 1.6 3.2 0.00 0.00 0.00 69 1006.2
20260505035917 9 347 1.6 1.6 0.00 0.00 0.00 69 1006.3
20260505035717 9 1 1.6 3.2 0.00 0.00 0.00 69 1006.4
20260505035517 9 327 3.2 3.2 0.00 0.00 0.00 69 1006.4
20260505035317 9 11 3.2 4.8 0.00 0.00 0.00 69 1006.4
20260505035117 9 359 0.0 1.6 0.00 0.00 0.00 69 1006.3
20260505034717 9 2 0.0 1.6 0.00 0.00 0.00 69 1006.5
20260505034517 9 318 0.0 1.6 0.00 0.00 0.00 69 1006.4
20260505034117 9 323 1.6 3.2 0.00 0.00 0.00 69 1006.1
20260505033918 9 338 0.0 1.6 0.00 0.00 0.00 69 1006.3
20260505033718 9 337 0.0 0.0 0.00 0.00 0.00 69 1006.2
20260505033518 9 337 1.6 1.6 0.00 0.00 0.00 69 1006.2
20260505033318 9 341 0.0 1.6 0.00 0.00 0.00 68 1006.0
20260505033117 9 339 0.0 1.6 0.00 0.00 0.00 68 1006.3
20260505032917 9 332 0.0 0.0 0.00 0.00 0.00 68 1006.1
20260505032518 9 304 0.0 3.2 0.00 0.00 0.00 68 1005.9
20260505032317 9 343 0.0 1.6 0.00 0.00 0.00 68 1006.2
20260505032118 9 342 1.6 1.6 0.00 0.00 0.00 67 1005.9
20260505031917 9 335 1.6 3.2 0.00 0.00 0.00 67 1006.0
20260505031717 9 331 0.0 0.0 0.00 0.00 0.00 67 1005.7
20260505031517 9 331 0.0 1.6 0.00 0.00 0.00 67 1005.8
20260505031317 10 331 1.6 1.6 0.00 0.00 0.00 67 1005.7
20260505031117 10 330 0.0 1.6 0.00 0.00 0.00 66 1005.7
20260505030917 10 330 0.0 1.6 0.00 0.00 0.00 66 1005.7
20260505030517 10 330 0.0 1.6 0.00 0.00 0.00 66 1005.8
20260505025917 10 25 1.6 1.6 0.00 0.10 0.00 65 1005.4
20260505025717 10 26 0.0 0.0 0.00 0.10 0.00 65 1005.3
20260505025517 10 26 1.6 3.2 0.00 0.10 0.00 65 1005.2
20260505025117 10 25 1.6 3.2 0.00 0.10 0.00 64 1005.3
20260505024917 10 346 1.6 3.2 0.00 0.10 0.00 64 1005.1
20260505024717 10 13 1.6 3.2 0.00 0.10 0.00 64 1005.2
20260505024518 10 12 1.6 9.7 0.00 0.10 0.00 64 1005.4
20260505024317 10 331 0.0 3.2 0.00 0.10 0.00 64 1005.2
20260505024117 10 314 3.2 3.2 0.00 0.10 0.00 64 1005.2
20260505023918 10 354 1.6 3.2 0.00 0.10 0.00 64 1005.3
20260505023718 10 348 1.6 1.6 0.00 0.10 0.00 64 1005.1
20260505023518 10 346 1.6 1.6 0.00 0.10 0.00 64 1005.2
20260505023318 10 344 1.6 1.6 0.00 0.10 0.00 63 1005.2
20260505023118 10 344 1.6 1.6 0.00 0.10 0.00 63 1005.2
20260505022918 10 17 1.6 3.2 0.00 0.10 0.00 63 1005.2
20260505022718 10 29 1.6 3.2 0.00 0.10 0.00 62 1005.0
20260505022318 10 21 1.6 6.4 0.00 0.10 0.00 62 1005.0
20260505022118 10 22 1.6 3.2 0.00 0.10 0.00 62 1004.9
20260505021918 10 8 1.6 4.8 0.00 0.10 0.00 62 1004.9
20260505021722 10 28 1.6 4.8 0.00 0.10 0.00 62 1004.9
20260505021518 10 8 1.6 3.2 0.00 0.10 0.00 62 1005.0
20260505021318 10 6 1.6 3.2 0.00 0.10 0.00 62 1005.0
20260505021118 10 7 0.0 6.4 0.00 0.10 0.00 62 1004.7
20260505020918 10 9 1.6 3.2 0.00 0.10 0.00 62 1004.9
20260505020718 10 10 1.6 4.8 0.00 0.10 0.00 61 1004.8
20260505020518 10 345 1.6 3.2 0.00 0.10 0.00 61 1004.8
20260505020318 10 27 0.0 1.6 0.00 0.10 0.00 61 1004.8
20260505015918 10 355 1.6 3.2 0.00 0.10 0.00 61 1004.9
20260505015718 10 12 1.6 3.2 0.00 0.10 0.00 60 1004.7
20260505015518 10 358 0.0 1.6 0.00 0.10 0.00 60 1004.8
20260505015318 10 16 1.6 3.2 0.00 0.10 0.00 60 1004.6
20260505015118 10 323 3.2 4.8 0.00 0.10 0.00 60 1004.8
20260505014918 10 321 3.2 3.2 0.00 0.10 0.00 60 1004.7
20260505014718 10 332 1.6 9.7 0.00 0.10 0.00 60 1004.5
20260505014518 11 12 1.6 3.2 0.00 0.10 0.00 60 1004.7
20260505014118 11 358 1.6 4.8 0.00 0.10 0.00 59 1004.5
20260505013918 11 354 1.6 3.2 0.00 0.10 0.00 59 1004.5
20260505013718 11 8 3.2 3.2 0.00 0.10 0.00 59 1004.4
20260505013518 11 13 1.6 6.4 0.00 0.10 0.00 59 1004.6
20260505013318 11 18 1.6 3.2 0.00 0.10 0.00 59 1004.4
20260505013118 11 7 1.6 3.2 0.00 0.10 0.00 58 1004.7
20260505012918 11 3 0.0 3.2 0.00 0.10 0.00 58 1004.4
20260505012718 11 347 1.6 9.7 0.00 0.10 0.00 58 1004.5
20260505012526 11 19 1.6 4.8 0.00 0.10 0.00 58 1004.4
20260505012118 11 359 1.6 4.8 0.00 0.10 0.00 58 1004.3
20260505011918 11 8 1.6 6.4 0.00 0.10 0.00 58 1004.5
20260505011718 11 355 3.2 4.8 0.00 0.10 0.00 58 1004.5
20260505011518 11 326 3.2 11.3 0.00 0.10 0.00 57 1004.4
20260505011318 11 24 3.2 3.2 0.00 0.10 0.00 57 1004.3
20260505011118 11 34 4.8 9.7 0.00 0.10 0.00 57 1004.3
20260505010718 11 333 4.8 4.8 0.00 0.10 0.00 57 1004.2
20260505010518 11 16 3.2 4.8 0.00 0.10 0.00 57 1004.3
20260505010318 11 1 1.6 1.6 0.00 0.10 0.00 58 1004.1
20260505010118 11 356 1.6 1.6 0.00 0.10 0.00 57 1004.1
20260505005917 11 355 3.2 3.2 0.00 0.10 0.00 57 1004.1
20260505005717 11 349 1.6 1.6 0.00 0.10 0.00 58 1004.2
20260505005118 11 357 0.0 0.0 0.00 0.10 0.00 56 1004.0
20260505004917 11 346 1.6 4.8 0.00 0.10 0.00 55 1003.9
20260505004717 11 18 0.0 3.2 0.00 0.10 0.00 55 1004.0
20260505004518 11 13 1.6 3.2 0.00 0.10 0.00 55 1003.9
20260505004317 11 2 1.6 4.8 0.00 0.10 0.00 55 1003.9
20260505004117 11 26 1.6 11.3 0.00 0.10 0.00 54 1003.8
20260505003918 11 1 4.8 9.7 0.00 0.10 0.00 54 1003.9
20260505003718 12 345 3.2 3.2 0.00 0.10 0.00 56 1003.8
20260505003518 12 308 3.2 6.4 0.00 0.10 0.00 54 1003.8
20260505003319 12 23 3.2 4.8 0.00 0.10 0.00 53 1003.8
20260505003118 12 30 3.2 4.8 0.00 0.10 0.00 53 1003.7
20260505002918 12 10 1.6 3.2 0.00 0.10 0.00 53 1003.7
20260505002718 12 40 4.8 6.4 0.00 0.10 0.00 53 1003.8
20260505002518 12 28 3.2 4.8 0.00 0.10 0.00 53 1003.7
20260505002118 12 13 0.0 6.4 0.00 0.10 0.00 53 1003.5
20260505001918 12 1 1.6 4.8 0.00 0.10 0.00 53 1003.6
20260505001718 12 26 3.2 6.4 0.00 0.10 0.00 52 1003.6
20260505001518 12 306 1.6 6.4 0.00 0.10 0.00 53 1003.5
20260505001318 12 34 6.4 9.7 0.00 0.10 0.00 52 1003.7
20260505001118 12 5 1.6 9.7 0.00 0.10 0.00 53 1003.6
20260505000918 12 30 8.0 11.3 0.00 0.10 0.00 52 1003.5
20260505000718 12 21 1.6 4.8 0.00 0.10 0.00 53 1003.2
20260505000518 12 45 8.0 9.7 0.00 0.10 0.00 52 1003.4
20260505000318 12 321 4.8 11.3 0.00 0.10 0.00 53 1003.4
20260505000117 12 7 4.8 6.4 0.00 0.10 0.00 53 1003.3
20260504235917 12 359 3.2 11.3 0.00 0.10 0.00 53 1003.3
20260504235717 12 332 3.2 6.4 0.00 0.10 0.00 53 1003.3
20260504235517 12 11 1.6 4.8 0.00 0.10 0.00 53 1003.2
20260504235317 12 35 3.2 9.7 0.00 0.10 0.00 53 1003.3
20260504235117 12 20 1.6 4.8 0.00 0.10 0.00 54 1003.3
20260504234917 12 333 3.2 9.7 0.00 0.10 0.00 53 1003.0
20260504234717 12 5 3.2 6.4 0.00 0.10 0.00 54 1003.2
20260504234317 12 8 4.8 9.7 0.00 0.10 0.00 53 1003.2
20260504234117 12 21 6.4 14.5 0.00 0.10 0.00 54 1003.1
20260504233918 12 15 3.2 9.7 0.00 0.10 0.00 55 1003.1
20260504233717 12 25 0.0 6.4 0.00 0.10 0.00 55 1003.3
20260504233517 12 11 6.4 11.3 0.00 0.10 0.00 55 1003.2
20260504233317 12 26 3.2 9.7 0.00 0.10 0.00 55 1003.1
20260504233117 12 58 3.2 9.7 0.00 0.10 0.00 55 1003.0
20260504232917 12 350 3.2 9.7 0.00 0.10 0.00 54 1003.2
20260504232717 12 349 4.8 9.7 0.00 0.10 0.00 55 1003.3
20260504232517 12 62 6.4 14.5 0.00 0.10 0.00 54 1003.0
20260504231917 12 40 3.2 6.4 0.00 0.10 0.00 54 1003.1
20260504231517 12 35 6.4 9.7 0.00 0.10 0.00 53 1003.0
20260504231117 12 10 4.8 12.9 0.00 0.10 0.00 53 1002.9
20260504230917 13 35 3.2 4.8 0.00 0.10 0.00 53 1003.0
20260504230717 13 34 8.0 16.1 0.00 0.10 0.00 53 1002.9
20260504230517 13 13 4.8 11.3 0.00 0.10 0.00 53 1002.8
20260504230316 13 41 6.4 14.5 0.00 0.10 0.00 53 1002.9
20260504230116 13 352 6.4 9.7 0.00 0.10 0.00 53 1002.8
20260504225916 13 44 6.4 12.9 0.00 0.10 0.00 53 1002.8
20260504225716 13 338 6.4 11.3 0.00 0.10 0.00 53 1002.7
20260504225516 13 15 6.4 11.3 0.00 0.10 0.00 53 1002.7
20260504225316 13 10 6.4 9.7 0.00 0.10 0.00 53 1002.5
20260504225116 13 351 3.2 9.7 0.00 0.10 0.00 53 1002.7
20260504224716 13 12 3.2 9.7 0.00 0.10 0.00 53 1002.4
20260504224516 13 353 6.4 12.9 0.00 0.10 0.00 53 1002.4
20260504224116 13 15 4.8 9.7 0.00 0.10 0.00 53 1002.3
20260504223716 13 334 1.6 12.9 0.00 0.10 0.00 53 1002.2
20260504223516 13 350 4.8 6.4 0.00 0.10 0.00 52 1002.4
20260504223316 13 42 3.2 4.8 0.00 0.10 0.00 52 1002.2
20260504222716 13 356 3.2 6.4 0.00 0.10 0.00 53 1002.5
20260504222316 13 7 3.2 24.1 0.00 0.10 0.00 52 1002.3
20260504222116 13 347 3.2 4.8 0.00 0.10 0.00 53 1002.4
20260504221916 13 347 8.0 11.3 0.00 0.10 0.00 53 1002.4
20260504221716 13 354 6.4 14.5 0.00 0.10 0.00 53 1002.4
20260504221516 13 357 12.9 16.1 0.00 0.10 0.00 52 1002.5
20260504221316 13 21 8.0 14.5 0.00 0.10 0.00 54 1002.5
20260504221116 13 15 4.8 9.7 0.00 0.10 0.00 55 1002.3
20260504220716 13 75 4.8 11.3 0.00 0.10 0.00 54 1002.3
20260504220315 13 30 6.4 6.4 0.00 0.10 0.00 53 1002.5
20260504215915 13 24 4.8 6.4 0.00 0.10 0.00 52 1002.5
20260504215716 13 301 6.4 12.9 0.00 0.10 0.00 51 1002.3
20260504215315 13 38 6.4 12.9 0.00 0.10 0.00 51 1002.5
20260504215115 13 300 4.8 9.7 0.00 0.10 0.00 51 1002.2
20260504214915 13 18 4.8 9.7 0.00 0.10 0.00 51 1002.3
20260504214715 13 19 6.4 9.7 0.00 0.10 0.00 52 1002.1
20260504214515 13 41 1.6 9.7 0.00 0.10 0.00 51 1002.2
20260504214315 13 65 3.2 6.4 0.00 0.10 0.00 51 1001.9
20260504213915 13 30 3.2 6.4 0.00 0.10 0.00 50 1002.2
20260504213715 13 43 3.2 11.3 0.00 0.10 0.00 49 1002.1
20260504213515 14 43 4.8 11.3 0.00 0.10 0.00 49 1002.1
20260504213115 14 32 8.0 14.5 0.00 0.10 0.00 47 1002.0
20260504212915 14 18 3.2 20.9 0.00 0.10 0.00 46 1002.0
20260504212515 14 77 4.8 9.7 0.00 0.10 0.00 44 1002.1
20260504212315 15 49 3.2 9.7 0.00 0.10 0.00 44 1002.0
20260504212115 15 56 4.8 6.4 0.00 0.10 0.00 43 1001.8
20260504211915 15 40 4.8 17.7 0.00 0.10 0.00 42 1001.9
20260504211715 15 5 6.4 16.1 0.00 0.10 0.00 42 1001.7
20260504211515 15 42 6.4 14.5 0.00 0.10 0.00 42 1001.8
20260504211315 15 64 11.3 20.9 0.00 0.10 0.00 40 1001.7
20260504211115 15 352 11.3 14.5 0.00 0.10 0.00 39 1001.7
20260504210915 15 42 1.6 9.7 0.00 0.10 0.00 39 1001.7
20260504210715 15 34 4.8 24.1 0.00 0.10 0.00 38 1001.5
20260504210515 15 65 6.4 9.7 0.00 0.10 0.00 37 1001.4
20260504205914 15 344 4.8 12.9 0.00 0.10 0.00 37 1001.6
20260504205514 15 17 4.8 16.1 0.00 0.10 0.00 37 1001.7
20260504205114 15 18 3.2 14.5 0.00 0.10 0.00 36 1001.3
20260504204714 15 51 1.6 14.5 0.00 0.10 0.00 36 1001.4
20260504204514 15 30 16.1 25.7 0.00 0.10 0.00 34 1001.3
20260504204314 15 4 3.2 9.7 0.00 0.10 0.00 34 1001.2
20260504204114 15 7 8.0 12.9 0.00 0.10 0.00 34 1001.4
20260504203915 15 30 8.0 12.9 0.00 0.10 0.00 33 1001.5
20260504203514 15 30 3.2 16.1 0.00 0.10 0.00 33 1001.3
20260504203314 15 59 6.4 6.4 0.00 0.10 0.00 32 1001.1
20260504203114 15 44 1.6 9.7 0.00 0.10 0.00 34 1001.1
20260504202914 15 62 3.2 11.3 0.00 0.10 0.00 32 1001.2
20260504202714 15 28 3.2 14.5 0.00 0.10 0.00 32 1001.1
20260504202514 15 337 6.4 11.3 0.00 0.10 0.00 32 1001.2
20260504202314 16 61 8.0 14.5 0.00 0.10 0.00 32 1000.8
20260504202114 16 10 4.8 11.3 0.00 0.10 0.00 32 1001.0
20260504201914 16 33 1.6 12.9 0.00 0.10 0.00 33 1000.8
20260504201714 16 8 8.0 11.3 0.00 0.10 0.00 31 1000.7
20260504201514 16 16 4.8 11.3 0.00 0.10 0.00 31 1000.9
20260504201315 16 27 4.8 16.1 0.00 0.10 0.00 31 1000.7
20260504200914 16 303 6.4 12.9 0.00 0.10 0.00 30 1000.8
20260504200714 16 26 8.0 12.9 0.00 0.10 0.00 31 1000.7
20260504200514 16 37 6.4 11.3 0.00 0.10 0.00 29 1000.6
20260504200115 16 1 9.7 12.9 0.00 0.10 0.00 29 1000.7
20260504195914 16 37 6.4 11.3 0.00 0.10 0.00 28 1000.9
20260504195715 16 40 4.8 11.3 0.00 0.10 0.00 29 1000.6
20260504195514 16 34 8.0 22.5 0.00 0.10 0.00 28 1000.6
20260504195314 16 58 9.7 24.1 0.00 0.10 0.00 28 1000.7
20260504195114 16 35 6.4 27.4 0.00 0.10 0.00 29 1000.6
20260504194915 16 304 8.0 20.9 0.00 0.10 0.00 28 1000.7
20260504194714 17 36 4.8 20.9 0.00 0.10 0.00 29 1000.6
20260504194515 17 25 11.3 14.5 0.00 0.10 0.00 28 1000.7
20260504194315 17 40 8.0 17.7 0.00 0.10 0.00 27 1000.7
20260504193915 17 6 6.4 9.7 0.00 0.10 0.00 26 1000.6
20260504193715 17 37 6.4 11.3 0.00 0.10 0.00 27 1000.4
20260504193514 16 349 6.4 9.7 0.00 0.10 0.00 28 1000.7
20260504193315 16 46 3.2 12.9 0.00 0.10 0.00 30 1000.4
20260504193114 16 348 9.7 17.7 0.00 0.10 0.00 27 1000.5
20260504192915 16 40 3.2 9.7 0.00 0.10 0.00 29 1000.5
20260504192714 16 61 9.7 25.7 0.00 0.10 0.00 26 1000.6
20260504192514 16 15 6.4 17.7 0.00 0.10 0.00 28 1000.6
20260504192314 16 68 9.7 14.5 0.00 0.10 0.00 27 1000.6
20260504192114 16 2 6.4 14.5 0.00 0.10 0.00 28 1000.5
20260504191914 16 19 6.4 16.1 0.00 0.10 0.00 28 1000.4
20260504191714 16 62 3.2 14.5 0.00 0.10 0.00 28 1000.5
20260504191515 16 54 8.0 20.9 0.00 0.10 0.00 28 1000.6
20260504191114 16 5 9.7 12.9 0.00 0.10 0.00 28 1000.5
20260504190514 16 13 3.2 11.3 0.00 0.10 0.00 29 1000.6
20260504190315 16 84 6.4 16.1 0.00 0.10 0.00 30 1000.4
20260504185915 16 34 11.3 14.5 0.00 0.10 0.00 27 1000.6
20260504185515 16 34 4.8 11.3 0.00 0.10 0.00 30 1000.6
20260504185315 16 37 8.0 16.1 0.00 0.10 0.00 29 1000.5
20260504185114 16 67 6.4 17.7 0.00 0.10 0.00 30 1000.3
20260504184915 16 356 8.0 24.1 0.00 0.10 0.00 27 1000.3
20260504184715 16 57 11.3 17.7 0.00 0.10 0.00 28 1000.5
20260504184515 16 10 3.2 20.9 0.00 0.10 0.00 29 1000.4
20260504184314 16 344 6.4 17.7 0.00 0.10 0.00 27 1000.7
20260504184115 16 351 6.4 17.7 0.00 0.10 0.00 31 1000.6
20260504183915 16 56 4.8 11.3 0.00 0.10 0.00 29 1000.6
20260504183715 16 7 4.8 6.4 0.00 0.10 0.00 31 1000.3
20260504183515 16 64 9.7 12.9 0.00 0.10 0.00 28 1000.6
20260504183115 15 61 3.2 12.9 0.00 0.10 0.00 29 1000.6
20260504182915 16 66 11.3 20.9 0.00 0.10 0.00 27 1000.6
20260504182515 16 57 9.7 12.9 0.00 0.10 0.00 29 1000.6
20260504182315 16 42 8.0 24.1 0.00 0.10 0.00 28 1000.7
20260504182115 16 63 8.0 16.1 0.00 0.10 0.00 27 1000.5
20260504181914 15 29 4.8 9.7 0.00 0.10 0.00 29 1000.6
20260504181715 15 97 8.0 24.1 0.00 0.10 0.00 29 1000.6
20260504181515 16 52 8.0 17.7 0.00 0.10 0.00 28 1000.8
20260504181114 15 52 11.3 16.1 0.00 0.10 0.00 28 1000.5
20260504180915 15 73 11.3 14.5 0.00 0.10 0.00 28 1000.5
20260504180714 15 89 9.7 22.5 0.00 0.10 0.00 28 1000.9
20260504180514 15 20 6.4 20.9 0.00 0.10 0.00 30 1000.7
20260504180115 15 43 11.3 17.7 0.00 0.10 0.00 29 1000.6
20260504175715 15 25 6.4 12.9 0.00 0.10 0.00 30 1000.6
20260504175515 15 10 9.7 20.9 0.00 0.10 0.00 28 1000.8
20260504175315 15 68 11.3 17.7 0.00 0.10 0.00 28 1000.8
20260504175115 15 353 8.0 24.1 0.00 0.10 0.00 29 1000.8
20260504174915 15 48 3.2 20.9 0.00 0.10 0.00 32 1000.7
20260504174515 15 38 6.4 11.3 0.00 0.10 0.00 31 1000.7
20260504174315 14 79 11.3 16.1 0.00 0.10 0.00 30 1000.7
20260504174115 14 36 4.8 14.5 0.00 0.10 0.00 30 1001.0
20260504173915 14 81 17.7 29.0 0.00 0.10 0.00 28 1000.6
20260504173515 14 10 12.9 22.5 0.00 0.10 0.00 29 1000.9
20260504173315 14 47 14.5 17.7 0.00 0.10 0.00 28 1000.9
20260504173115 14 69 9.7 27.4 0.00 0.10 0.00 29 1000.7
20260504172915 14 76 8.0 20.9 0.00 0.10 0.00 28 1000.7
20260504172515 15 34 16.1 17.7 0.00 0.10 0.00 29 1000.7
20260504172315 15 33 6.4 14.5 0.00 0.10 0.00 30 1000.8
20260504172115 14 79 12.9 16.1 0.00 0.10 0.00 32 1000.7
20260504171915 13 48 6.4 16.1 0.00 0.10 0.00 33 1000.8
20260504171715 13 57 8.0 22.5 0.00 0.10 0.00 31 1000.8
20260504171515 13 78 11.3 29.0 0.00 0.10 0.00 32 1001.0
20260504171315 14 67 11.3 25.7 0.00 0.10 0.00 29 1000.8
20260504171115 14 73 14.5 22.5 0.00 0.10 0.00 29 1000.8
20260504170915 13 32 6.4 22.5 0.00 0.10 0.00 35 1000.9
20260504170715 14 52 14.5 17.7 0.00 0.10 0.00 30 1000.9
20260504170515 14 18 14.5 20.9 0.00 0.10 0.00 30 1000.7
20260504170314 14 302 12.9 22.5 0.00 0.10 0.00 31 1000.9
20260504170114 13 65 8.0 6.4 0.00 0.10 0.00 35 1000.6
20260504160313 12 65 4.8 16.1 0.00 0.10 0.00 38 1000.9
20260504160113 12 19 6.4 11.3 0.00 0.10 0.00 40 1001.2
20260504151113 11 18 12.9 24.1 0.00 0.10 0.00 48 1000.3
20260504150913 11 63 9.7 20.9 0.00 0.10 0.00 48 1000.6
20260504150713 11 65 8.0 22.5 0.00 0.10 0.00 48 1000.5
20260504150314 11 67 9.7 20.9 0.00 0.10 0.00 47 1000.5
20260504150113 11 11 6.4 16.1 0.00 0.10 0.00 48 1000.6
20260504141314 11 66 11.3 14.5 0.00 0.10 0.00 55 999.7
20260504141114 10 56 6.4 14.5 0.00 0.10 0.00 58 999.8
20260504140913 10 30 4.8 14.5 0.00 0.10 0.00 59 999.5
20260504140713 10 60 4.8 11.3 0.00 0.10 0.00 61 999.6
20260504140513 10 74 8.0 12.9 0.00 0.10 0.00 59 999.7
20260504140114 10 33 3.2 16.1 0.00 0.10 0.00 60 999.5
20260504130714 7 46 4.8 12.9 0.00 0.10 0.00 74 998.8
20260504130314 7 71 9.7 16.1 0.00 0.10 0.00 76 998.8
20260504130114 7 321 4.8 6.4 0.00 0.10 0.00 77 998.6
20260504120314 5 64 1.6 9.7 0.00 0.10 0.00 85 998.1
20260504110713 5 54 6.4 16.1 0.00 0.10 0.00 87 996.6
20260504110513 5 69 9.7 12.9 0.00 0.10 0.00 88 996.6
20260504110313 5 64 4.8 9.7 0.00 0.10 0.00 88 996.7
20260504110114 5 67 1.6 9.7 0.00 0.10 0.00 87 996.7
20260504100313 5 71 8.0 16.1 0.00 0.10 0.00 90 995.4
20260504100114 5 72 3.2 9.7 0.00 0.10 0.00 90 995.5
20260504090114 4 61 9.7 20.9 0.00 0.10 0.00 92 993.6
20260504081913 3 72 6.4 11.3 0.00 0.08 0.00 93 992.9
20260504081513 3 73 6.4 25.7 0.00 0.08 0.00 93 993.0
20260504081313 3 71 8.0 14.5 0.00 0.08 0.00 93 992.9
20260504081113 3 59 6.4 14.5 0.00 0.08 0.00 93 992.8
20260504080913 3 73 9.7 27.4 0.00 0.08 0.00 93 992.8
20260504080714 3 40 8.0 20.9 0.00 0.08 0.00 93 992.6
20260504080513 3 35 9.7 14.5 0.00 0.08 0.00 93 992.7
20260504080314 3 61 9.7 12.9 0.00 0.08 0.00 93 992.8
20260504080114 3 74 11.3 14.5 0.00 0.08 0.00 93 992.7
20260504070314 3 68 9.7 16.1 0.00 0.08 0.00 93 991.5
20260504070114 3 58 8.0 24.1 0.00 0.08 0.00 93 991.3
20260504060114 2 22 3.2 14.5 0.00 0.05 0.00 94 989.4
20260504050514 2 54 4.8 17.7 0.00 0.05 0.00 93 988.2
20260504050314 2 54 3.2 16.1 0.00 0.05 0.00 93 987.7
20260504050114 2 85 6.4 12.9 0.00 0.05 0.00 93 987.7
20260504045914 2 1 4.8 27.4 0.00 0.05 0.00 93 987.8
20260504045714 2 61 14.5 16.1 0.00 0.05 0.00 93 987.7
20260504045514 2 27 4.8 14.5 0.00 0.05 0.00 93 987.7